User: anonymous   Login
Location: Tyler Bend Campground
(35.9875°N, 92.7606°W)
Time: 22:59:46
(UTC-06:00)
Language:

CZ-2C R/B - Orbit

View from above orbital plane
View from above orbital plane
View from above satellite
View from above satellite

Ground track
Ground track

The orbit data is extracted from the following two-line orbital elements,

1 36089U 09061B   14332.07048373  .00000425  00000-0  11795-3 0  4933
2 36089 098.0900 358.5087 0082967 036.1268 016.1341 14.49284710266671
Epoch (UTC): 28 November 2014 01:41:29
Eccentricity: 0.0082967
inclination: 98.0900°
perigee height: 669 km
apogee height: 787 km
right ascension of ascending node: 358.5087°
argument of perigee: 36.1268°
revolutions per day: 14.49284710
mean anomaly at epoch: 16.1341°
orbit number at epoch: 26667

The dashed part of the orbit path shows where the satellite is in the earth's shadow,  

DLR